URO100P EGHH-EDFH

Flight info

Callsign URO100P
Flight time 0h 59m
Altitude 37000
Route SAM M140 DVR/N0402F230 L9 KONAN UL607 MATUG DCT ROPUV
Aircraft A346/H-SDE2E3FGHIJ3J4J5M1RWXY/LB1D1

Departure

Time 2026-05-08 15:46
Airport Bournemouth Airport (EGHH)

Arrival

Time 2026-05-08 16:45
Airport Frankfurt-Hahn Airport (EDFH)
Time Latitude Longitude Altitude Speed Heading
2026-05-08 15:35 50.78725 -1.84170 52 ft 0 kts 165°
2026-05-08 15:41 50.78718 -1.84167 46 ft 4 kts 165°
2026-05-08 15:41 50.78680 -1.84151 51 ft 7 kts 165°
2026-05-08 15:42 50.78616 -1.84125 51 ft 12 kts 165°
2026-05-08 15:42 50.78527 -1.84088 47 ft 15 kts 165°
2026-05-08 15:42 50.78413 -1.84041 53 ft 18 kts 166°
2026-05-08 15:42 50.78278 -1.83987 48 ft 22 kts 165°
2026-05-08 15:43 50.78121 -1.83923 52 ft 23 kts 169°
2026-05-08 15:43 50.78035 -1.84074 52 ft 28 kts 255°
2026-05-08 15:43 50.77982 -1.84384 50 ft 30 kts 255°
2026-05-08 15:43 50.77926 -1.84714 50 ft 31 kts 255°
2026-05-08 15:44 50.77867 -1.85061 50 ft 33 kts 255°
2026-05-08 15:44 50.77805 -1.85425 52 ft 35 kts 255°
2026-05-08 15:44 50.77725 -1.85707 50 ft 11 kts 239°
2026-05-08 15:44 50.77747 -1.85739 50 ft 8 kts 37°
2026-05-08 15:45 50.77787 -1.85574 48 ft 39 kts 74°
2026-05-08 15:45 50.77921 -1.84770 56 ft 109 kts 76°
2026-05-08 15:45 50.78166 -1.83298 88 ft 162 kts 78°
2026-05-08 15:45 50.78468 -1.81511 619 ft 175 kts 79°
2026-05-08 15:46 50.78793 -1.79604 1348 ft 180 kts 78°
2026-05-08 15:46 50.79117 -1.77716 2222 ft 179 kts 79°
2026-05-08 15:46 50.79452 -1.75730 2764 ft 194 kts 79°
2026-05-08 15:46 50.79813 -1.73568 3219 ft 213 kts 79°
2026-05-08 15:47 50.80209 -1.71189 3656 ft 234 kts 78°
2026-05-08 15:47 50.80641 -1.68596 4211 ft 252 kts 77°
2026-05-08 15:47 50.81095 -1.65817 4810 ft 268 kts 83°
2026-05-08 15:47 50.81272 -1.62845 5641 ft 273 kts 89°
2026-05-08 15:48 50.81473 -1.56768 7554 ft 280 kts 89°
2026-05-08 15:48 50.81603 -1.53718 8537 ft 283 kts 88°
2026-05-08 15:48 50.81751 -1.50583 9541 ft 286 kts 88°
2026-05-08 15:49 50.81907 -1.47420 10517 ft 290 kts 88°
2026-05-08 15:49 50.82080 -1.44128 11191 ft 306 kts 88°
2026-05-08 15:49 50.82260 -1.40664 11740 ft 325 kts 87°
2026-05-08 15:49 50.82449 -1.36996 12258 ft 344 kts 87°
2026-05-08 15:50 50.82655 -1.33107 12768 ft 363 kts 88°
2026-05-08 15:50 50.82867 -1.29029 13349 ft 378 kts 87°
2026-05-08 15:50 50.83084 -1.24843 14221 ft 383 kts 87°
2026-05-08 15:50 50.83307 -1.20611 15093 ft 387 kts 87°
2026-05-08 15:51 50.83524 -1.16388 15948 ft 391 kts 86°
2026-05-08 15:51 50.83745 -1.12062 16814 ft 395 kts 86°
2026-05-08 15:51 50.83969 -1.07695 17663 ft 400 kts 86°
2026-05-08 15:51 50.84190 -1.03281 18478 ft 405 kts 87°
2026-05-08 15:52 50.84416 -0.98796 19173 ft 410 kts 87°
2026-05-08 15:52 50.84638 -0.94233 19811 ft 417 kts 86°
2026-05-08 15:52 50.84859 -0.89617 20470 ft 422 kts 86°
2026-05-08 15:52 50.85084 -0.84940 21101 ft 429 kts 86°
2026-05-08 15:53 50.85346 -0.80258 21775 ft 434 kts 82°
2026-05-08 15:53 50.85898 -0.75523 22466 ft 438 kts 75°
2026-05-08 15:53 50.86799 -0.70880 23131 ft 443 kts 68°
2026-05-08 15:53 50.87974 -0.66337 23807 ft 447 kts 65°
2026-05-08 15:54 50.89221 -0.61794 24360 ft 451 kts 65°
2026-05-08 15:54 50.90492 -0.57192 24929 ft 456 kts 65°
2026-05-08 15:54 50.91765 -0.52555 25480 ft 460 kts 65°
2026-05-08 15:54 50.93046 -0.47850 26031 ft 465 kts 65°
2026-05-08 15:55 50.94328 -0.43109 26549 ft 470 kts 65°
2026-05-08 15:55 50.96924 -0.33449 27591 ft 480 kts 65°
2026-05-08 15:55 50.98235 -0.28549 28112 ft 484 kts 65°
2026-05-08 15:56 50.99556 -0.23599 28631 ft 488 kts 65°
2026-05-08 15:56 51.00865 -0.18683 29126 ft 493 kts 65°
2026-05-08 15:56 51.02222 -0.13572 29774 ft 494 kts 65°
2026-05-08 15:56 51.03548 -0.08563 30539 ft 491 kts 65°
2026-05-08 15:57 51.04804 -0.03574 31227 ft 489 kts 67°
2026-05-08 15:57 51.05889 0.01536 31926 ft 488 kts 70°
2026-05-08 15:57 51.06784 0.06751 32646 ft 486 kts 73°
2026-05-08 15:57 51.07484 0.12023 33311 ft 486 kts 77°
2026-05-08 15:58 51.07989 0.17348 33946 ft 486 kts 80°
2026-05-08 15:58 51.08396 0.22702 34480 ft 486 kts 81°
2026-05-08 15:58 51.08783 0.28039 34998 ft 485 kts 81°
2026-05-08 15:58 51.09170 0.33383 35491 ft 485 kts 81°
2026-05-08 15:59 51.09558 0.38719 35908 ft 486 kts 81°
2026-05-08 15:59 51.09950 0.44074 36264 ft 488 kts 81°
2026-05-08 15:59 51.10345 0.49489 36599 ft 490 kts 81°
2026-05-08 15:59 51.10730 0.54818 36974 ft 491 kts 82°
2026-05-08 16:00 51.11122 0.60231 37079 ft 492 kts 82°
2026-05-08 16:00 51.11508 0.65650 37084 ft 492 kts 82°
2026-05-08 16:00 51.12270 0.76495 37090 ft 492 kts 82°
2026-05-08 16:01 51.13023 0.87361 37091 ft 492 kts 82°
2026-05-08 16:01 51.13764 0.98215 37095 ft 491 kts 82°
2026-05-08 16:02 51.14494 1.09057 37092 ft 489 kts 82°
2026-05-08 16:02 51.15213 1.19852 37091 ft 489 kts 82°
2026-05-08 16:03 51.15563 1.25188 36846 ft 490 kts 82°
2026-05-08 16:03 51.15885 1.30617 36605 ft 494 kts 84°
2026-05-08 16:03 51.16032 1.36117 36784 ft 498 kts 88°
2026-05-08 16:03 51.15982 1.41640 37095 ft 494 kts 91°
2026-05-08 16:04 51.15492 1.52587 37103 ft 490 kts 93°
2026-05-08 16:04 51.14940 1.63442 37103 ft 490 kts 93°
2026-05-08 16:05 51.14397 1.74215 37104 ft 490 kts 93°
2026-05-08 16:05 51.13849 1.85042 37101 ft 490 kts 93°
2026-05-08 16:06 51.13291 1.95871 37094 ft 490 kts 93°
2026-05-08 16:06 51.12737 2.06718 37094 ft 490 kts 93°
2026-05-08 16:07 51.12201 2.17551 37097 ft 490 kts 93°
2026-05-08 16:07 51.11652 2.28390 37104 ft 490 kts 93°
2026-05-08 16:08 51.11089 2.39229 37110 ft 491 kts 93°
2026-05-08 16:08 51.10514 2.50078 37105 ft 491 kts 93°
2026-05-08 16:09 51.10002 2.59099 37102 ft 491 kts 95°
2026-05-08 16:09 51.08553 2.71555 37107 ft 493 kts 103°
2026-05-08 16:10 51.06649 2.82056 37114 ft 493 kts 105°
2026-05-08 16:10 51.04695 2.92543 37115 ft 492 kts 105°
2026-05-08 16:11 51.02747 3.02993 37112 ft 492 kts 105°
2026-05-08 16:11 51.00799 3.13416 37106 ft 492 kts 106°
2026-05-08 16:12 50.98857 3.23765 37101 ft 491 kts 106°
2026-05-08 16:12 50.96897 3.34169 37104 ft 491 kts 106°
2026-05-08 16:13 50.94926 3.44561 37094 ft 490 kts 107°
2026-05-08 16:13 50.92945 3.54926 37093 ft 490 kts 107°
2026-05-08 16:14 50.90954 3.65299 37094 ft 490 kts 107°
2026-05-08 16:14 50.88963 3.75655 37097 ft 490 kts 107°
2026-05-08 16:15 50.86967 3.85993 37101 ft 489 kts 107°
2026-05-08 16:15 50.84975 3.96227 37101 ft 489 kts 107°
2026-05-08 16:16 50.82963 4.06510 37094 ft 489 kts 107°
2026-05-08 16:16 50.80939 4.16804 37096 ft 489 kts 107°
2026-05-08 16:17 50.79249 4.25356 37086 ft 489 kts 107°
2026-05-08 16:17 50.76864 4.37364 37090 ft 489 kts 107°
2026-05-08 16:18 50.74809 4.47651 37092 ft 489 kts 108°
2026-05-08 16:18 50.72748 4.57907 37094 ft 489 kts 108°
2026-05-08 16:19 50.70741 4.68112 36766 ft 488 kts 107°
2026-05-08 16:19 50.69760 4.73232 36433 ft 484 kts 107°
2026-05-08 16:19 50.68782 4.78295 36027 ft 480 kts 107°
2026-05-08 16:20 50.67804 4.83316 35554 ft 477 kts 107°
2026-05-08 16:20 50.66827 4.88306 35055 ft 476 kts 107°
2026-05-08 16:20 50.65844 4.93288 34519 ft 475 kts 108°
2026-05-08 16:20 50.64834 4.98256 33926 ft 475 kts 108°
2026-05-08 16:21 50.63815 5.03208 33281 ft 475 kts 108°
2026-05-08 16:21 50.62789 5.08173 32668 ft 474 kts 108°
2026-05-08 16:21 50.61762 5.13142 32056 ft 474 kts 108°
2026-05-08 16:21 50.60744 5.18078 31480 ft 472 kts 109°
2026-05-08 16:22 50.59726 5.22988 30935 ft 470 kts 109°
2026-05-08 16:22 50.59050 5.26238 30550 ft 469 kts 109°
2026-05-08 16:22 50.57688 5.32770 29687 ft 469 kts 109°
2026-05-08 16:22 50.56681 5.37586 29003 ft 468 kts 109°
2026-05-08 16:23 50.55662 5.42452 28407 ft 465 kts 109°
2026-05-08 16:23 50.54646 5.47293 28013 ft 464 kts 109°
2026-05-08 16:23 50.53633 5.52105 27575 ft 461 kts 109°
2026-05-08 16:23 50.52628 5.56873 27138 ft 457 kts 109°
2026-05-08 16:24 50.51700 5.61645 26716 ft 454 kts 107°
2026-05-08 16:24 50.50943 5.66451 26299 ft 451 kts 103°
2026-05-08 16:24 50.50312 5.71275 25874 ft 448 kts 102°
2026-05-08 16:24 50.49704 5.76067 25430 ft 444 kts 102°
2026-05-08 16:25 50.49095 5.80822 24998 ft 441 kts 102°
2026-05-08 16:25 50.48493 5.85480 24533 ft 438 kts 102°
2026-05-08 16:25 50.47881 5.90177 24034 ft 436 kts 102°
2026-05-08 16:25 50.47272 5.94835 23561 ft 433 kts 102°
2026-05-08 16:26 50.46665 5.99462 23054 ft 430 kts 102°
2026-05-08 16:26 50.46264 6.02506 22762 ft 426 kts 102°
2026-05-08 16:26 50.45667 6.07049 22327 ft 421 kts 103°
2026-05-08 16:26 50.45074 6.11528 21921 ft 417 kts 103°
2026-05-08 16:27 50.44483 6.15968 21486 ft 412 kts 103°
2026-05-08 16:27 50.43896 6.20359 21091 ft 408 kts 103°
2026-05-08 16:27 50.43315 6.24702 20675 ft 405 kts 103°
2026-05-08 16:27 50.42736 6.29014 20282 ft 401 kts 103°
2026-05-08 16:28 50.42116 6.33275 19872 ft 398 kts 107°
2026-05-08 16:28 50.41206 6.37358 19468 ft 393 kts 115°
2026-05-08 16:28 50.39983 6.41181 19063 ft 389 kts 122°
2026-05-08 16:28 50.38587 6.44732 18657 ft 387 kts 124°
2026-05-08 16:29 50.37121 6.48321 18234 ft 384 kts 124°
2026-05-08 16:29 50.35679 6.51833 17834 ft 381 kts 124°
2026-05-08 16:29 50.34270 6.55273 17443 ft 378 kts 124°
2026-05-08 16:29 50.32854 6.58739 17023 ft 376 kts 124°
2026-05-08 16:30 50.31453 6.62177 16622 ft 373 kts 124°
2026-05-08 16:30 50.30055 6.65604 16192 ft 372 kts 124°
2026-05-08 16:30 50.28665 6.69012 15757 ft 370 kts 124°
2026-05-08 16:30 50.27282 6.72398 15337 ft 369 kts 124°
2026-05-08 16:31 50.25902 6.75772 14936 ft 367 kts 124°
2026-05-08 16:31 50.24525 6.79134 14525 ft 366 kts 124°
2026-05-08 16:31 50.23127 6.82459 14118 ft 364 kts 126°
2026-05-08 16:31 50.21615 6.85621 13665 ft 362 kts 130°
2026-05-08 16:32 50.19980 6.88601 13233 ft 359 kts 134°
2026-05-08 16:32 50.18287 6.91474 12818 ft 357 kts 134°
2026-05-08 16:32 50.16631 6.94270 12425 ft 354 kts 134°
2026-05-08 16:32 50.14961 6.97085 12018 ft 352 kts 134°
2026-05-08 16:33 50.13300 6.99885 11635 ft 350 kts 135°
2026-05-08 16:33 50.11655 7.02655 11235 ft 347 kts 135°
2026-05-08 16:33 50.10011 7.05424 10834 ft 346 kts 135°
2026-05-08 16:33 50.08396 7.08141 10643 ft 335 kts 135°
2026-05-08 16:34 50.06846 7.10748 10553 ft 322 kts 135°
2026-05-08 16:34 50.05354 7.13256 10444 ft 309 kts 135°
2026-05-08 16:34 50.03919 7.15664 10348 ft 297 kts 135°
2026-05-08 16:34 50.02536 7.17979 10262 ft 287 kts 135°
2026-05-08 16:35 50.01195 7.20226 10150 ft 280 kts 136°
2026-05-08 16:35 49.99879 7.22426 10026 ft 277 kts 136°
2026-05-08 16:35 49.98464 7.24426 9640 ft 275 kts 153°
2026-05-08 16:35 49.96650 7.25261 9287 ft 267 kts 181°
2026-05-08 16:36 49.94877 7.24757 8983 ft 262 kts 205°
2026-05-08 16:36 49.93409 7.23134 8668 ft 259 kts 226°
2026-05-08 16:36 49.92180 7.21084 8434 ft 256 kts 227°
2026-05-08 16:36 49.90977 7.19033 8130 ft 256 kts 227°
2026-05-08 16:37 49.89773 7.16997 7840 ft 255 kts 227°
2026-05-08 16:37 49.88565 7.14974 7558 ft 255 kts 227°
2026-05-08 16:37 49.87351 7.12954 7279 ft 255 kts 226°
2026-05-08 16:37 49.86140 7.10947 7027 ft 254 kts 226°
2026-05-08 16:38 49.84926 7.08943 6762 ft 254 kts 226°
2026-05-08 16:38 49.83716 7.06948 6468 ft 254 kts 226°
2026-05-08 16:38 49.82506 7.04955 6178 ft 254 kts 226°
2026-05-08 16:38 49.81296 7.02965 5910 ft 254 kts 226°
2026-05-08 16:39 49.79933 7.01284 5653 ft 249 kts 199°
2026-05-08 16:39 49.78291 7.01149 5566 ft 233 kts 159°
2026-05-08 16:39 49.77037 7.02601 5494 ft 224 kts 122°
2026-05-08 16:39 49.76533 7.04856 5427 ft 224 kts 93°
2026-05-08 16:40 49.76721 7.07236 5340 ft 225 kts 70°
2026-05-08 16:40 49.77535 7.09282 5099 ft 224 kts 44°
2026-05-08 16:40 49.78748 7.10691 5090 ft 215 kts 34°
2026-05-08 16:40 49.80015 7.11924 4779 ft 219 kts 32°
2026-05-08 16:41 49.81315 7.13148 4481 ft 217 kts 33°
2026-05-08 16:41 49.82593 7.14364 4156 ft 214 kts 33°
2026-05-08 16:41 49.83858 7.15589 3853 ft 210 kts 33°
2026-05-08 16:42 49.86205 7.17873 3271 ft 185 kts 34°
2026-05-08 16:42 49.87250 7.18898 3034 ft 170 kts 33°
2026-05-08 16:42 49.88207 7.19841 2816 ft 156 kts 33°
2026-05-08 16:42 49.89102 7.20721 2591 ft 150 kts 33°
2026-05-08 16:43 49.89978 7.21580 2443 ft 148 kts 33°
2026-05-08 16:43 49.90848 7.22430 2290 ft 147 kts 33°
2026-05-08 16:43 49.91708 7.23276 2127 ft 149 kts 33°
2026-05-08 16:43 49.92576 7.24131 1874 ft 147 kts 33°
2026-05-08 16:44 49.93442 7.24984 1711 ft 146 kts 33°
2026-05-08 16:44 49.94207 7.25745 1685 ft 105 kts 32°
2026-05-08 16:44 49.94664 7.26193 1669 ft 65 kts 32°
2026-05-08 16:44 49.95031 7.26549 1670 ft 59 kts 32°
2026-05-08 16:45 49.95371 7.26885 1649 ft 56 kts 33°
2026-05-08 16:45 49.95668 7.27180 1644 ft 34 kts 32°
2026-05-08 16:45 49.95740 7.27361 1644 ft 17 kts 110°
2026-05-08 16:45 49.95652 7.27487 1644 ft 18 kts 147°
2026-05-08 16:46 49.95535 7.27517 1645 ft 18 kts 209°
2026-05-08 16:46 49.95428 7.27418 1647 ft 16 kts 206°
2026-05-08 16:46 49.95346 7.27488 1648 ft 11 kts 124°
2026-05-08 16:46 49.95342 7.27497 1648 ft 0 kts 124°